Flag for Kuwait Weather past 2 weeks in Kuwait City, Kuwait

Now
102 °F

Sunny.


Feels Like: 97 °F
Forecast: 86 / 106 °F
Wind: 13 mph from North

Location: Kuwait International Airport

Current Time: Aug 23, 2014 at 8:46:53 AM

Latest Report: Aug 23, 2014 at 8:00 AM


Visibility: 10 mi

Pressure: 29.56 "Hg

Humidity: 12%

Dew point: 41 °F

Location of Kuwait CityLocation

Historic Weather in Kuwait City — Graph

°F

Kuwait City temperature yesterday

Maximum temperature yesterday: 117 °F (at 1:00 PM)
Minimum temperature yesterday: 97 °F (at 4:00 AM)
Average temperature yesterday: 106 °F

Past Weeks' High & Low Weather Summary

 TemperatureHumidityPressure
High122 °F (Aug 15, 3:30 PM)89% (Aug 18, 6:00 AM)29.74 "Hg (Aug 18, 6:00 AM)
Low86 °F (Aug 17, 4:00 AM)6% (Aug 15, 2:00 PM)29.27 "Hg (Aug 8, 8:00 PM)
Average103 °F24%29.54 "Hg
* Reported Aug 8 7:00 AM — Aug 23 7:00 AM, Kuwait City, Weather by CustomWeather, © 2014

Note: Actual official high and low records may vary slightly from our data, if they occured in-between our weather recording intervals... More about our weather records

Advertising

Kuwait City weather history for previous 24 hours

 ConditionsComfort  
Time TempWeatherWind HumidityBarometerVisibility
7:00 AM
Aug 23
99 °FSunny.12 mph13%29.56 "Hg10 mi
6:00 AM93 °FSunny.9 mph16%29.53 "Hg10 mi
5:00 AM95 °FClear.12 mph15%29.53 "Hg10 mi
4:00 AM97 °FClear.12 mph16%29.53 "Hg10 mi
3:00 AM99 °FClear.13 mph16%29.53 "Hg10 mi
2:00 AM99 °FClear.13 mph16%29.53 "Hg10 mi
1:00 AM100 °FClear.13 mph15%29.53 "Hg10 mi
12:00 AM100 °FClear.10 mph14%29.53 "Hg10 mi
11:00 PM
Aug 22
102 °FClear.13 mph13%29.56 "Hg10 mi
10:00 PM106 °FClear.14 mph13%29.53 "Hg10 mi
9:00 PM106 °FClear.15 mph13%29.53 "Hg10 mi
8:00 PM108 °FClear.15 mph13%29.53 "Hg10 mi
7:00 PM109 °FClear.16 mph12%29.53 "Hg10 mi
6:00 PM111 °FSunny.20 mph11%29.50 "Hg10 mi
5:00 PM113 °FSunny.18 mph11%29.50 "Hg10 mi
4:00 PM115 °FSunny.22 mph10%29.50 "Hg10 mi
3:00 PM117 °FSunny.22 mph9%29.53 "Hg10 mi
2:00 PM117 °FSunny.24 mph8%29.53 "Hg10 mi
1:00 PM117 °FSunny.21 mph8%29.53 "Hg10 mi
12:00 PM115 °FSunny.17 mph9%29.56 "Hg10 mi
11:00 AM113 °FSunny.18 mph8%29.59 "Hg10 mi
10:00 AM109 °FSunny.14 mph8%29.59 "Hg10 mi
9:00 AM106 °FSunny.12 mph9%29.62 "Hg10 mi
8:00 AM102 °FSunny.12 mph11%29.59 "Hg10 mi
Weather by CustomWeather, © 2014

See weather overviewHow to use our weather pages